This demonstration page uses our WeatherBlox Daily Observations layout. Learn more.

Left ArrowRight Arrow

41.86663, -103.66717

Hourly Observations for December 15, 2020

Temp ( °F °C ) Dew Point ( °F °C ) Humidity (%) Winds ( mph kmh ) Pressure ( in mb ) Visibility ( mi km ) Precip ( " mm )
12:53 am 00:53 Cloudy with Light Snow 22 -5.6 17 -8.3 82 82 WNW 6 9 30.13 1020 4 6 0.00 0.00
1:53 am 01:53 Cloudy 22 -5.6 16 -8.9 78 78 WNW 6 9 30.12 1020 10 16 0.00 0.00
2:53 am 02:53 Cloudy with Light Snow 22 -5.6 16 -8.9 78 78 WNW 9 15 30.12 1020 8 13 0.00 0.00
3:53 am 03:53 Cloudy 22 -5.6 17 -8.3 82 82 WNW 9 15 30.12 1020 10 16 0.00 0.00
4:53 am 04:53 Cloudy 22 -5.6 17 -8.3 82 82 WNW 6 9 30.14 1021 10 16 0.00 0.00
5:53 am 05:53 Cloudy 22 -5.6 17 -8.3 82 82 WNW 7 11 30.16 1021 10 16 0.00 0.00
6:53 am 06:53 Cloudy with Light Snow 23 -5 17 -8.3 78 78 WNW 7 11 30.18 1022 7 11 0.00 0.00
7:53 am 07:53 Cloudy 22 -5.6 18 -7.8 85 85 WNW 7 11 30.17 1022 10 16 0.00 0.00
8:37 am 08:37 Cloudy 26 -3.3 20 -6.7 78 78 WNW 6 9 30.23 1024 10 16 0.00 0.00
8:53 am 08:53 Cloudy 27 -2.8 21 -6.1 78 78 WNW 7 11 30.17 1022 10 16 0.00 0.00
9:08 am 09:08 Cloudy 28 -2 19 -7 69 69 NNW 16 26 30.21 1023 10 16 0.00 0.00
9:22 am 09:22 Cloudy 28 -2 19 -7 69 69 NNW 12 19 30.21 1023 10 16 0.00 0.00
9:53 am 09:53 Cloudy 29 -1.7 19 -7.2 66 66 NNW 20 31 30.18 1022 10 16 0.00 0.00
10:22 am 10:22 Mostly Cloudy 29 -1.7 19 -7.2 66 66 NNW 16 26 30.22 1023 10 16 0.00 0.00
10:53 am 10:53 Mostly Sunny 30 -1.1 19 -7.2 64 64 NNW 20 31 30.17 1022 10 16 0.00 0.00
11:53 am 11:53 Mostly Cloudy 30 -1.1 19 -7.2 64 64 NNW 18 30 30.14 1021 10 16 0.00 0.00
12:53 pm 12:53 Mostly Sunny 32 0 20 -6.7 61 61 NNW 13 20 30.10 1019 10 16 0.00 0.00
1:53 pm 13:53 Sunny 32 0 19 -7.2 59 59 NNW 10 17 30.08 1019 10 16 0.00 0.00
2:53 pm 14:53 Sunny 33 0.6 21 -6.1 61 61 NNW 14 22 30.07 1018 10 16 0.00 0.00
3:53 pm 15:53 Sunny 31 -0.6 20 -6.7 64 64 NW 6 9 30.08 1019 10 16 0.00 0.00
4:53 pm 16:53 Clear 27 -2.8 17 -8.3 66 66 WNW 6 9 30.09 1019 10 16 0.00 0.00
5:53 pm 17:53 Clear 19 -7.2 14 -10 81 81 NNW 5 7 30.10 1019 10 16 0.00 0.00
6:53 pm 18:53 Clear 17 -8.3 12 -11.1 80 80 NW 7 11 30.11 1020 10 16 0.00 0.00
7:53 pm 19:53 Clear 18 -7.8 11 -11.7 74 74 NNW 8 13 30.09 1019 10 16 0.00 0.00
8:53 pm 20:53 Clear 15 -9.4 10 -12.2 80 80 Calm 30.06 1018 10 16 0.00 0.00
9:53 pm 21:53 Clear 12 -11.1 6 -14.4 77 77 N 3 6 30.05 1018 10 16 0.00 0.00
10:53 pm 22:53 Clear 14 -10 7 -13.9 73 73 NNE 3 6 30.03 1017 10 16 0.00 0.00
11:53 pm 23:53 Mostly Cloudy 15 -9.4 9 -12.8 77 77 N 5 7 30.01 1016 10 16 0.00 0.00

Powered by AerisWeather